Location: Arclight Observatory
(36.5667°N, 87.3333°W)
Time: 10:31:30
(UTC-06:00)

ISS - Visible Passes

Search period start: 20 December 2014 00:00
Search period end: 30 December 2014 00:00
Orbit: 404 x 415 km, 51.6° (Epoch: 20 December)

Date Brightness Start Highest point End Pass type
(mag) Time Alt. Az. Time Alt. Az. Time Alt. Az.
22 Dec -1.0 17:41:00 10° N 17:42:14 12° NNE 17:42:14 12° NNE visible
23 Dec -1.2 18:25:25 10° NNW 18:26:35 19° NNW 18:26:35 19° NNW visible
24 Dec -1.8 17:34:49 10° NNW 17:37:24 21° NNE 17:38:20 19° NE visible
24 Dec 0.0 19:10:59 10° WNW 19:11:08 11° WNW 19:11:08 11° WNW visible
25 Dec -3.4 18:19:53 10° NW 18:23:07 86° WSW 18:23:07 86° WSW visible
26 Dec -3.0 17:28:56 10° NW 17:32:07 46° NE 17:35:17 10° ESE visible
26 Dec -0.2 19:06:32 10° W 19:08:19 14° SW 19:08:19 14° SW visible
27 Dec -1.2 18:14:37 10° WNW 18:17:29 28° SW 18:20:19 10° SSE visible
28 Dec -2.7 17:23:14 10° NW 17:26:28 59° SW 17:29:40 10° SE visible
